Lid_Strength_Index
-1 -0 -0 -1 -0 -0 -0 -0 -2 -1 -1 -1 -1 -1 -1 -0 -0 -0 -0 -0 -0 1
-1 -1 -0 -1 -1 -0 -1 -1 -1 -1 -1 -1 -1 -1 -1 0 -0 -1 -0 0 -0 0
-1 -1 -1 -1 -1 -1 -1 -1 -1 -1 -1 -1 -1 -1 -1 -0 -0 -0 -0 -0 -0 -0
-0 -1 -1 -1 -1 -1 -1 -1 -1 -1 -1 -1 -1 -1 -1 -1 -0 0 0 -1 -0 0
-1 -1 -1 -1 -1 -1 -0 -1 -0 -1 -1 -1 -0 -1 -0 0 0 0 1 0 -0 1
-0 -0 -0 -1 -1 -1 -1 -0 -0 -0 -0 -0 -1 -0 -0 -0 0 -0 0 0 0 -0
-0 -0 -0 -1 -1 -1 -1 -0 -0 -0 -0 -0 -1 -1 -1 -0 -0 -0 -0 -0 -0 -0
-0 -1 -1 -1 -1 -1 -1 -1 -0 -0 0 -0 -0 0 -1 -1 -0 -0 -0 -0 -0 -1
-0 -0 -0 -0 -0 -1 -0 -1 -1 -0 -0 0 0 2 3 1 -0 -0 0 0 -0 -0
0 0 -0 -0 -0 -0 0 -0 0 -0 -0 0 -0 3 4 3 -0 0 0 0 0 0
1 0 -0 -0 -0 -0 -0 0 0 0 -0 0 0 3 5 4 -0 -0 -0 0 0 0
0 0 0 0 -0 -0 0 0 0 0 0 0 0 3 6 3 -0 0 0 -0 -0 -0
0 -0 0 -0 0 -0 0 0 0 0 0 1 0 3 5 4 0 1 1 0 0 3
-0 -0 -0 -0 -0 0 0 0 1 1 0 0 0 0 5 7 0 1 1 1 1 -0